www.pogodaiklimat.ru

Погода и климат >> Архив погоды >> Россия >> Ненецкий АО >> Мыс Белый Нос


ПОГОДА на Мысе Белый Нос

  • Прогноз погоды на Мысе Белый Нос
  • Монитор погоды на Мысе Белый Нос

АРХИВ ПОГОДЫ на Мысе Белый Нос

Время (UTC), дата Ветер
(напр.,м/с)
 
Видим.   Явления Облачность Т
(С)
Тd
(С)
f
(%)
Тe
(С)
Тes
(С)
Комфортность P
(гПа)
Po
(гПа)
Тmin
(С)
Tmax
(С)
R
(мм)
R24
(мм)
S
(см)
09 19.03 Ю 7
{10}
20 км в посл. час снег 10/0 300 м
[As op]
-2.0 -2.4 97 -10 -10 1014.3 1013.5
12 19.03 Ю 8-10
{10}
4000 м слаб. снег 10/0 300 м
[As op]
-2.3 -2.8 96 -11 -11 1012.6 1011.8
15 19.03 Ю 9-11
{12}
20 км позёмок {снег} 10/0 300 м
[As op]
-1.7 -2.1 97 -10 -10 1010.3 1009.5 -1.7 0.3
18 19.03 Ю 10-13
{13}
4000 м слаб. снег {метель} 10/0 300 м
[As op]
-0.5 -0.5 100 -9 -9 1007.4 1006.7
21 19.03 Ю 8-11
{13}
20 км {снег, метель} 10/0 300 м
[As op]
+0.2 +0.2 100 -8 -8 1005.9 1005.1
00 20.03 ЮЗ 8-11
{12}
20 км {снег, метель} 10/0
[As op]
-0.3 -0.4 99 -8 -8 1004.9 1004.2
03 20.03 ЮЗ 7
{12}
20 км 10/0
[As op]
-0.8 -0.8 100 -8 -8 1004.8 1004.0 -1.7 0.3 30
06 20.03 ЮЗ 6 20 км 10/0
[As op]
-0.4 -0.4 100 -7 -7 1003.9 1003.2
09 20.03 ЮЗ 5 20 км 10/0
[As op]
-0.2 -0.2 100 -7 -6 1003.5 1002.8
12 20.03 Ю 5 20 км в посл. час ливневой снег 10/10 300 м
[Cb cap]
-0.3 -0.3 100 -7 -7 1003.3 1002.5
15 20.03 Ю 5 20 км в посл. час ливневой снег 10/10 300 м
[Cb cap]
-0.8 -0.8 100 -7 -7 1002.6 1001.8 -0.1 0.2
18 20.03 Ю 5 4000 м слаб. ливневой снег 10/10 300 м
[Cb cap]
-0.9 -0.9 100 -8 -8 1001.4 1000.7
21 20.03 Ю 3 20 км {ливн. осадки} 10/10 300 м
[Cb cap]
-0.8 -0.8 100 -6 -6 1000.3 999.5
00 21.03 ЮЗ 4 20 км {ливн. осадки} 10/10 600 м
[Sc]
-2.0 -2.0 100 -8 -8 999.9 999.1
03 21.03 Ю 4 20 км 10/10 600 м
[Sc]
-2.7 -2.7 100 -9 -9 1000.0 999.2 -3.0 34
06 21.03 ЮВ 3 500 м туман 10/8 300 м
[St Cs]
-3.2 -3.2 100 -9 -8 1000.3 999.6 -4.0
09 21.03 Ю 2 200 м туман ?/? -2.8 -2.8 100 -7 -7 1001.5 1000.8
12 21.03 Ю 3 4000 м в посл. час туман 10/10 300 м
[St]
-2.9 -2.9 100 -8 -8 1002.4 1001.7
15 21.03 ЮВ 2 20 км 10/10 300 м
[Sc]
-3.6 -3.6 100 -8 -8 1003.4 1002.6 -2.5
18 21.03 В 2 20 км 10/10 300 м
[Sc]
-3.8 -3.8 100 -8 -8 1004.1 1003.3
21 21.03 ЮВ 1 20 км 8/8 300 м
[Sc diur, vesp]
-4.9 -4.9 100 -7 -7 1004.3 1003.5
00 22.03 В 2 20 км 10/10 300 м
[St]
-5.1 -5.1 100 -10 -10 1005.4 1004.6
03 22.03 В 2 20 км 10/10 300 м
[Sc]
-4.9 -4.9 100 -9 -9 1006.3 1005.5 -5.4 34
06 22.03 ЮВ 1 20 км 6/6 300 м
[Sc]
-4.0 -4.2 99 -7 -5 1007.3 1006.5 -5.4
09 22.03 Ю 3 20 км 9/9 300 м
[Sc]
-3.8 -4.2 97 -9 -9 1008.3 1007.5
12 22.03 Ю 1 20 км 10/0
[Ac und]
-3.8 -3.9 99 -6 -6 1009.4 1008.6
15 22.03 ЮВ 3 20 км 10/4 300 м
[Sc Ac und]
-5.8 -5.8 100 -12 -12 1009.9 1009.1 -3.3
18 22.03 Ю 3 20 км {ливн. осадки} 10/10 300 м
[Cb cap]
-5.5 -5.5 100 -11 -11 1009.8 1009.0
21 22.03 Ю 2 20 км 10/10 300 м
[Sc]
-6.3 -6.3 100 -11 -11 1009.6 1008.8
00 23.03 ЮЗ 3 20 км 10/10 300 м
[Sc]
-6.3 -6.3 100 -12 -12 1009.3 1008.6
03 23.03 ЮЗ 4 20 км 9/9 600 м
[Sc]
-6.0 -6.0 100 -13 -13 1009.6 1008.8 -6.9 0.0 33
06 23.03 ЮЗ 4 20 км 9/6 300 м
[Sc diur, vesp Ac trans]
-5.3 -5.4 99 -12 -12 1009.8 1009.0
09 23.03 ЮЗ 8-10
{11}
20 км {ливн. осадки, метель} 10/10 300 м
[Cb cap]
-5.2 -5.3 99 -14 -14 1009.4 1008.6
12 23.03 ЮЗ 8-12
{14}
4000 м слаб. ливневой снег {метель} 10/10 300 м
[Cb cap]
-4.6 -4.6 100 -14 -14 1008.7 1008.0
15 23.03 ЮЗ 9-11
{13}
20 км позёмок {ливн. осадки} 10/6 300 м
[Cb cap Ac lent Cs]
-4.0 -4.1 99 -13 -13 1007.6 1006.8 -3.6 0.0
18 23.03 ЮЗ 9-11
{14}
20 км позёмок {ливн. осадки} 4/0
[Ci fib]
-4.6 -4.9 98 -14 -14 1006.5 1005.7
21 23.03 Ю 11-14
{15}
20 км сильный позёмок 3/0
[Ci fib]
-3.6 -4.2 96 -13 -13 1003.0 1002.2
00 24.03 Ю 14-17
{18}
2000 м метель 6/0
[Ci fib]
-3.4 -3.5 99 -14 -14 999.3 998.5
03 24.03 Ю 14-17
{18}
2000 м метель 10/0
[As op]
-3.2 -3.4 99 -14 -14 995.8 995.0 -4.8 31
06 24.03 Ю 13-17
{19}
2000 м слаб. ливневой снег {метель} 10/10 300 м
[Cb cap]
-2.1 -2.1 100 -12 -12 994.2 993.4
09 24.03 ЮЗ 13-16
{18}
2000 м слаб. ливневой снег {метель} 10/10 300 м
[Cb cap]
-1.1 -1.1 100 -11 -11 993.9 993.1
12 24.03 ЮЗ 12-16
{18}
2000 м метель {ливн. осадки} 10/10 300 м
[Cb cap]
-0.4 -0.4 100 -10 -10 994.5 993.7
15 24.03 ЮЗ 10-13
{16}
20 км позёмок 10/9 300 м
[Sc Ac und]
-0.1 -0.1 100 -9 -9 996.1 995.4 0.0 0.4
18 24.03 ЮЗ 8-11
{13}
20 км позёмок 10/0
[Ac und]
-0.2 -0.5 98 -8 -8 997.3 996.6
21 24.03 ЮЗ 7
{11}
20 км {метель} 10/0
[Ac und]
-0.3 -0.7 97 -8 -8 998.3 997.6
00 25.03 Ю 8-10
{12}
20 км {метель} 10/0
[Ac und]
-0.7 -0.8 99 -9 -9 998.8 998.0
03 25.03 Ю 6
{10}
20 км 9/9 600 м
[Sc]
-1.3 -1.3 100 -9 -9 999.3 998.5 -1.4 30
06 25.03 Ю 5 20 км 10/0
[Ac und]
-0.7 -0.7 100 -7 -7 1000.0 999.2
09 25.03 Ю 7 20 км {ливн. осадки} 10/0
[Ac und]
-0.2 -0.2 100 -8 -7 1000.3 999.5
12 25.03 Ю 8-10
{10}
20 км в посл. час ливневой снег 10/10 300 м
[Cb cap]
-0.3 -0.3 100 -8 -8 1000.5 999.8
15 25.03 ЮЗ 7
{11}
20 км 9/4 300 м
[Sc Ac trans Ci fib]
-0.6 -0.6 100 -8 -8 1001.6 1000.8 0.0 0.0
18 25.03 Ю 7 20 км 3/0
[Ac trans]
-4.9 -4.9 100 -13 -13 1002.5 1001.7
21 25.03 Ю 7-10
{10}
20 км ясно -6.1 -6.1 100 -15 -15 1002.5 1001.7
00 26.03 ЮВ 5
{10}
20 км 8/0
[Ci fib]
-6.9 -6.9 100 -15 -15 1001.9 1001.2
03 26.03 В 4 20 км 10/0
[Ac und]
-5.6 -5.8 98 -12 -12 1000.0 999.3 -7.6 30

 

Местоположение метеостанции Мыс Белый Нос (Ненецкий АО, Россия): широта 69.60 долгота 60.21 высота над уровнем моря 6 м.

В архиве по умолчанию представлена погода на Мысе Белый Нос за последнюю неделю. Архивные данные за месяц целиком и за предыдущие месяцы, начиная с января 2011 года, Вы можете получить, выбрав интересующий диапазон дат из раскрывающегося списка и нажав кнопку "Ввод!".


*Определитесь, кто Вы:
робот инопланетянин человек

Внимание! Время в таблицах - всемирное. Для получения местного времени необходимо прибавить поправку, которая равна 3 ч.

Смотрите также архив погоды в соседних городах и на ближайших метеорологических станциях:

Погода в Амдерме (Ненецкий АО, Россия) (60 км)
Погода в Имени Федорова (Ненецкий АО, Россия) (104 км)
Погода в Варандее (Ненецкий АО, Россия) (122 км)
Погода в Усть-Каре (Ненецкий АО, Россия) (189 км)
Погода на Мысе Константиновском (Ненецкий АО, Россия) (220 км)
Погода в Марресале (Ямало-Ненецкий АО, Россия) (255 км)
Погода в Хорей-Вере (Ненецкий АО, Россия) (257 км)
Погода в Ходоварихе (Ненецкий АО, Россия) (265 км)
Погода в Воркуте (Коми, Россия) (281 км)
Погода в Харуте (Ненецкий АО, Россия) (307 км)

Пояснения к столбцам:

Ветер - указаны скорость ветра в м/с - средняя за 10 мин, порывы в срок и между сроками (в фигурных скобках) и направление, откуда дует ветер: С - северный, СВ - северо-восточный, В - восточный, ЮВ - юго-восточный, Ю - южный, ЮЗ - юго-западный, З - западный, СЗ - северо-западный.
Видимость - горизонтальная дальность видимости в метрах или километрах. При видимости от 1 до 10 км при отсутствии осадков обычно наблюдается дымка, при ухудшении видимости до 1 км и менее - туман. В сухую погоду видимость может ухудшаться дымом, пылью или мглою.
Явления - указаны атмосферные явления, наблюдавшиеся в срок или в последний час перед сроком; фигурными скобками обозначены явления, наблюдавшиеся между сроками (за 1-3 часа до срока); квадратными скобками обозначены град или гололедные отложения с указанием их диаметра в мм.
Облачность - указаны через наклонную черту общая и нижняя облачность в баллах и высота нижней границы облаков в метрах; квадратными скобками обозначены формы облаков: Ci - перистые, Cs - перисто-слоистые, Cc - перисто-кучевые, Ac - высококучевые, As - высокослоистые, Sc - слоисто-кучевые, Ns - слоисто-дождевые, Cu - кучевые, Cb - кучево-дождевые. Подробнее классификацию облаков см. в Атласе облаков (PDF).
T - Температура воздуха - температура, измеренная на высоте 2 м над землей.
Td - Температура точки росы - температура, при понижении до которой содержащийся в воздухе водяной пар достигнет насыщения.
f - Относительная влажность воздуха - влажноcть воздуха, измеренная на высоте 2 м над землей.
Te - Эффективная температура - температура, которую ощущает одетый по сезону человек в тени. Характеристика душности погоды. При расчете учитывается влияние влажности воздуха и скорости ветра на теплоощущения человека.
Tes - Эффективная температура на солнце - температура, которую ощущает человек, с поправкой на солнечный нагрев. Характеристика знойности погоды. Зависит от высоты солнца над горизонтом, облачности и скорости ветра. Ночью, в пасмурную погоду, а также при ветре 12 м/с и более поправка равна нулю.
P - Атмосферное давление - приведенное к уровню моря атмосферное давление.
Po - Атмосферное давление - измеренное на уровне метеостанции атмосферное давление.
Tmin - Минимальная температура - минимум температуры воздуха на высоте 2 м над землей.
Tmax - Максимальная температура - максимум температуры воздуха на высоте 2 м над землей.
R - Количество осадков - Количество выпавших осадков за период времени, мм. При наведении курсора мыши на число - период времени, за который выпало указанное количество осадков.
R24 - Количество осадков - Количество выпавших осадков за 24 часа, мм.
S - Снежный покров - Высота снежного покрова, см. При наведении курсора мыши на число - состояние снежного покрова и степень покрытия местности в баллах.